Regional Weather Roundup
Issued by NWS

Home | Current Version | Previous Version | Text Only | Print | Product List | Glossary On
Versions: 1 2 3 4 5 6 7 8 9 10 11 12 13 14 15 16 17 18 19 20 21 22 23 24 25 26 27 28 29 30 31 32 33 34 35 36 37 38 39 40 41 42 43 44 45 46 47 48 49 50
000
ASUS44 KEWX 270310
RWRTX
SOUTH TEXAS REGIONAL WEATHER ROUNDUP
NATIONAL WEATHER SERVICE AUSTIN/SAN ANTONIO TX
900 PM CST THU FEB 26 2015

NOTE: "FAIR" INDICATED FEW OR NO CLOUDS BELOW 12,000 FEET WITH NO
SIGNIFICANT WEATHER AND/OR OBSTRUCTIONS TO VISIBILITY.

* - THESE STATIONS ARE NOT NWS OR FAA STATIONS...AND ARE NOT SUBJECT
    TO NWS AND FAA QUALITY CONTROL.

TXZ171-172-183>190-270400-
TEXAS HILL COUNTRY AND EDWARDS PLATEAU

CITY           SKY/WX    TMP DP  RH WIND       PRES   REMARKS
JUNCTION       CLOUDY    31  22  69 NE14      30.31R WCI  21
*LLANO         CLOUDY    34  23  64 N9        30.40R WCI  26
BURNET         CLOUDY    33  22  63 N10G18    30.35R WCI  25
*HORSESHOE BAY CLOUDY    34  24  64 N6G16     30.34R WCI  29
*KERRVILLE     CLOUDY    32  27  81 N9G16     30.29R WCI  24
*FREDERICKSBRG CLOUDY    31  24  75 NE12G18   30.29R WCI  22
*ROCKSPRINGS   CLOUDY    32  25  74 NE13G21   30.25R WCI  22
*BOERNE STAGE  CLOUDY    36  28  75 N13G21    30.27R WCI  27
*CASTROVILLE   PTCLDY    39  29  68 NE13G18   30.29R WCI  31
HONDO          CLEAR     38  28  67 NE16      30.28R WCI  29
*UVALDE        CLEAR     38  29  70 NE17G24   30.26R WCI  29
DEL RIO        CLOUDY    42  27  55 N10       30.27R WCI  36
LAUGHLIN AFB   NOT AVBL
CARRIZO SPRGS  CLOUDY    45  34  65 NE17G26   30.23R WCI  37
$$

TXZ173-191>194-202-209-217>225-228-270400-
CENTRAL AND SOUTH CENTRAL TEXAS

CITY           SKY/WX    TMP DP  RH WIND       PRES   REMARKS
GEORGETOWN     CLOUDY    37  21  52 N8        30.34R WCI  31
AUSTIN/BERGSTM PTCLDY    37  25  61 N22       30.33R WCI  26
AUSTIN/MABRY   CLOUDY    38  23  55 N10G17    30.34R WCI  31
*AUSTIN/EXEC   CLOUDY    37  25  60 N16       30.34R WCI  28
*LAGO VISTA    CLOUDY    36  25  64 N12G17    30.31R WCI  28
SAN MARCOS     CLEAR     37  25  60 NE9       30.32R WCI  31
NEW BRAUNFELS  CLEAR     39  28  64 NE15      30.28R WCI  31
RANDOLPH AFB   NOT AVBL
PT SAN ANTONIO NOT AVBL
SAN ANTONIO    CLOUDY    39  29  67 N14G22    30.28R WCI  31
STINSON FIELD  CLEAR     40  30  67 NE13G23   30.27R WCI  32
*PLEASANTON    CLEAR     41  32  70 NE17G23   30.27R WCI  32
*LA GRANGE     PTCLDY    40  30  67 N6        30.31R WCI  36
*GIDDINGS      PTCLDY    37  26  64 N12G17    30.36R WCI  29
*GONZALES      PTCLDY    39  31  72 N13G18    30.30R WCI  31
$$

TXZ163>164-176>182-195>201-210>213-226-227-235-270400-
SOUTHEAST TEXAS

CITY           SKY/WX    TMP DP  RH WIND       PRES   REMARKS
COLLEGE STN    MOCLDY    37  26  64 N13       30.33R WCI  29
*BRYAN         CLOUDY    37  27  67 N8        30.34R WCI  31
*CALDWELL      PTCLDY    36  28  75 N8        30.36R WCI  29
*CROCKETT      PTCLDY    36  32  87 CALM      30.38R
*BRENHAM       PTCLDY    40  31  70 N10       30.33R WCI  34
HUNTSVILLE     PTCLDY    36  29  75 NE5       30.32R WCI  32
CONROE         PTCLDY    37  30  75 N5        30.32R WCI  33
HOUSTON BUSH   CLOUDY    41  33  73 N17       30.30R WCI  32
HOUSTON HOBBY  MOCLDY    42  35  76 N17       30.28R WCI  34
*HOUSTON SW AP CLEAR     47  43  85 N8        30.29R WCI  44
PEARLAND       CLEAR     43  36  76 NE14      30.29R WCI  36
HOUSTON HOOKS  CLOUDY    41  33  73 NE9       30.31R WCI  35
ELLINGTON FLD  NOT AVBL
SUGAR LAND     CLEAR     41  34  76 NE14      30.28R WCI  33
*HOUSTON EXEC  CLOUDY    39  32  75 N15       30.31R WCI  31
*CLEVELAND MUN CLOUDY    39  34  81 N3        30.33R
*WHARTON       CLEAR     41  36  80 N13G18    30.29R WCI  34
*COLUMBUS      FAIR      41  33  74 N8        30.28R WCI  36
$$

TXZ214>216-236>238-270400-
THE UPPER TEXAS COAST

CITY           SKY/WX    TMP DP  RH WIND       PRES   REMARKS
*ORANGE        CLEAR     42  37  79 N7        30.29R WCI  38
PORT ARTHUR    CLEAR     43  35  73 N13       30.26R WCI  36
GALVESTON      CLEAR     46  40  79 N22       30.27R WCI  38
ANGLETON       CLEAR     43  36  76 N12       30.26R WCI  37
*BAY CITY      CLEAR     47  38  72 N13       30.25R WCI  41
PALACIOS       CLEAR     46  37  71 N15       30.26R WCI  40
$$

TXZ229>234-239>247-270400-
TEXAS COASTAL BEND AND RIO GRANDE PLAINS

CITY           SKY/WX    TMP DP  RH WIND       PRES   REMARKS
VICTORIA       CLEAR     44  37  76 N13       30.28R WCI  38
*BEEVILLE      CLEAR     47  37  69 NE21G26   30.23R WCI  39
ROCKPORT       CLEAR     51  38  60 NE20G26   30.23R
*PORT ARANSAS  CLEAR     53  41  64 NE13G21   30.22R
*PORT LAVACA   CLEAR     46  38  75 N15G23    30.26R WCI  39
*INGLESIDE     CLEAR     52  41  68 NE5       30.23R
CORPUS CHRISTI PTCLDY    53  40  61 E13       30.22R
CORPUS NAS     PTCLDY    54  42  64 E17       30.22R
*ROBSTOWN      NOT AVBL
ALICE          CLEAR     50  38  63 E8        30.22R WCI  47
KINGSVILLE NAS MOCLDY    50  42  74 E7        30.23R WCI  47
COTULLA        MOCLDY    47  34  60 NE18G29   30.24R WCI  40
*FAITH RANCH   MOCLDY    52  36  54 NE17G30   30.18R
LAREDO         PTCLDY    56  36  47 E20G29    30.18R
$$

TXZ248>255-270400-
DEEP SOUTH TEXAS

CITY           SKY/WX    TMP DP  RH WIND       PRES   REMARKS
BROWNSVILLE    PTCLDY    56  47  71 NE10      30.17R
PORT ISABEL    MOCLDY    58  49  72 NE10      30.18R
*SOUTH PADRE   MOCLDY    59  50  72 SE16      30.17R
HARLINGEN      PTCLDY    54  47  77 NE12      30.18R
*HEBBRONVILLE  CLEAR    N/A N/A N/A E12       30.20R HAZE
MCALLEN        CLEAR     56  44  64 NE14G21   30.18R
*WESLACO       PTCLDY    53  45  73 NE12      30.16S
FALFURRIAS     CLEAR     51  39  64 E9        30.20R
EDINBURG       PTCLDY    52  43  73 NE9       30.19R
*ZAPATA        PTCLDY    55  37  50 E16G30    30.15R
$$

TXZ213>215-236>238-242>244-246-247-251-254-255-270400-
CMAN STATIONS

STATION/POSITION TIME  TEMP    WIND        PRES    WAVE
                       AIR SEA DIR/SP/G            HT/PER
                 (UTC) (F)     (DEG/KT/KT) (MB)    (FT/S)
SABINE PASS      0300   46 52   10/ 14/ 18 1024.7
NORTH JETTY/GLS  0300   45 53   40/ 20/ 22   N/A
EAGLE POINT      0300   44 48   30/ 14/ 18 1025.2
MORGANS POINT    0300   42 55   10/ 12/ 16 1025.4
MISSION/ARANSAS  0200   52     VRB  7      1023.0
PORT O`CONNOR    0300           30/ 19/ 22   N/A
PORT ARANSAS     0300   55 56   40/ 20/ 24 1023.6
MALAQUITE BEACH  0300   55 57   40/ 20/ 22 1022.1
BAFFIN BAY       0300   54      70/ 20/ 23 1022.6
PORT ISABEL      0300   58 57   40/ 13/ 19 1021.4
$$

GMZ080-GMZ150>470-270400-
OFFSHORE BUOY REPORTS

STATION/POSITION TIME  TEMP    WIND        PRES    WAVE
                       AIR SEA DIR/SP/G            HT/PER
                 (UTC) (F)     (DEG/KT/KT) (MB)    (FT/S)
20 E GALVESTON   0300   51 57   10/ 19/ 23 1023.2    3/ 4
90 E PT ARANSAS  0300   55 67   40/ 23/ 29 1022.3    6/ 6
35 NE PT MANSFLD 0300   58 69   60/ 19/ 25 1021.5    7/ 7
200 E PT ISABEL  0300   60 70   40/ 19/ 23 1019.8    5/ 6
$$



USA.gov is the U.S. government's official web portal to all federal, state and local government web resources and services.